TimeAEST,TemperatureF,Dew PointF,Humidity,Sea Level PressureIn,VisibilityMPH,Wind Direction,Wind SpeedMPH,Gust SpeedMPH,PrecipitationIn,Events,Conditions,WindDirDegrees,DateUTC
12:00 AM,77,66,60,29.92,,SSE,9.2,,,,,160,2012-12-08 14:00:00
12:00 AM,77.0,66.2,69,29.92,6.2,SSE,9.2,-,N/A,,Partly Cloudy,160,2012-12-08 14:00:00
12:30 AM,77.0,66.2,69,29.89,6.2,SSE,10.4,-,N/A,,Partly Cloudy,160,2012-12-08 14:30:00
1:00 AM,76,66,65,29.91,,SSE,9.2,,,,,160,2012-12-08 15:00:00
1:00 AM,77.0,66.2,69,29.89,6.2,SSE,9.2,-,N/A,,Partly Cloudy,160,2012-12-08 15:00:00
1:30 AM,77.0,66.2,69,29.89,6.2,SSE,9.2,-,N/A,,Partly Cloudy,150,2012-12-08 15:30:00
2:00 AM,77.0,66.2,69,29.86,6.2,SSE,8.1,-,N/A,,Partly Cloudy,160,2012-12-08 16:00:00
2:30 AM,77.0,66.2,69,29.86,6.2,South,8.1,-,N/A,,Partly Cloudy,180,2012-12-08 16:30:00
3:00 AM,76,66,64,29.87,,SSE,9.2,,,,,160,2012-12-08 17:00:00
3:00 AM,75.2,66.2,73,29.86,6.2,SSE,9.2,-,N/A,,Partly Cloudy,160,2012-12-08 17:00:00
3:30 AM,75.2,66.2,73,29.86,6.2,South,9.2,-,N/A,,Scattered Clouds,170,2012-12-08 17:30:00
4:00 AM,76,66,63,29.88,,SSE,9.2,,,,,160,2012-12-08 18:00:00
4:00 AM,75.2,66.2,73,29.86,6.2,SSE,9.2,-,N/A,,Partly Cloudy,160,2012-12-08 18:00:00
4:30 AM,75.2,66.2,73,29.86,6.2,SSE,10.4,-,N/A,,Scattered Clouds,160,2012-12-08 18:30:00
5:00 AM,77.0,66.2,69,29.86,6.2,SSE,9.2,-,N/A,,Mostly Cloudy,150,2012-12-08 19:00:00
5:30 AM,77.0,66.2,69,29.89,6.2,SSE,8.1,-,N/A,,Scattered Clouds,160,2012-12-08 19:30:00
6:00 AM,77,65,58,29.90,19,South,8.1,,,,Mostly Cloudy,170,2012-12-08 20:00:00
6:00 AM,77.0,64.4,65,29.89,6.2,South,8.1,-,N/A,,Scattered Clouds,170,2012-12-08 20:00:00
6:30 AM,77.0,66.2,69,29.89,6.2,South,10.4,-,N/A,,Scattered Clouds,180,2012-12-08 20:30:00
7:00 AM,78,67,60,29.92,,South,9.2,,,,,170,2012-12-08 21:00:00
7:00 AM,78.8,66.2,65,29.89,6.2,South,9.2,-,N/A,,Scattered Clouds,170,2012-12-08 21:00:00
7:30 AM,80.6,68.0,65,29.92,6.2,South,10.4,-,N/A,,Scattered Clouds,170,2012-12-08 21:30:00
8:00 AM,80.6,68.0,65,29.92,6.2,South,12.7,-,N/A,,Scattered Clouds,170,2012-12-08 22:00:00
8:30 AM,82.4,68.0,62,29.92,6.2,South,10.4,-,N/A,,Scattered Clouds,170,2012-12-08 22:30:00
9:00 AM,81,69,59,29.94,12,SE,16.1,,,,Mostly Cloudy,140,2012-12-08 23:00:00
9:00 AM,80.6,69.8,70,29.92,6.2,SE,16.1,-,N/A,,Scattered Clouds,140,2012-12-08 23:00:00
9:30 AM,82.4,68.0,62,29.92,6.2,ESE,18.4,-,N/A,Rain,Light Rain Showers,120,2012-12-08 23:30:00
10:00 AM,85,67,46,29.94,,ESE,17.3,,,,,120,2012-12-09 00:00:00
10:00 AM,86.0,68.0,55,29.92,6.2,ESE,17.3,-,N/A,,Scattered Clouds,120,2012-12-09 00:00:00
10:30 AM,87.8,66.2,49,29.92,6.2,ESE,18.4,-,N/A,,Scattered Clouds,120,2012-12-09 00:30:00
11:00 AM,86.0,64.4,48,29.92,6.2,ESE,19.6,-,N/A,,Partly Cloudy,110,2012-12-09 01:00:00
11:30 AM,87.8,62.6,43,29.92,6.2,SE,21.9,-,N/A,,Partly Cloudy,130,2012-12-09 01:30:00
12:00 PM,89,62,30,29.91,2,SE,21.9,,,,Smoke,130,2012-12-09 02:00:00
12:00 PM,89.6,62.6,40,29.92,6.2,SE,21.9,-,N/A,,Partly Cloudy,130,2012-12-09 02:00:00
12:30 PM,89.6,59.0,36,29.89,6.2,SE,21.9,-,N/A,,Partly Cloudy,130,2012-12-09 02:30:00
1:00 PM,88,64,35,29.89,,ESE,19.6,,,,,120,2012-12-09 03:00:00
1:00 PM,87.8,64.4,46,29.89,6.2,ESE,19.6,-,N/A,,Partly Cloudy,120,2012-12-09 03:00:00
1:30 PM,89.6,60.8,38,29.86,6.2,SE,19.6,-,N/A,,Partly Cloudy,140,2012-12-09 03:30:00
2:00 PM,89.6,64.4,43,29.86,6.2,ESE,20.7,-,N/A,,Partly Cloudy,120,2012-12-09 04:00:00
2:30 PM,87.8,66.2,49,29.86,6.2,ESE,20.7,-,N/A,,Partly Cloudy,120,2012-12-09 04:30:00
3:00 PM,89,65,34,29.86,19,ESE,20.7,,,,Partly Cloudy,120,2012-12-09 05:00:00
3:00 PM,89.6,64.4,43,29.86,6.2,ESE,20.7,-,N/A,,Partly Cloudy,120,2012-12-09 05:00:00
3:30 PM,87.8,64.4,46,29.86,6.2,ESE,20.7,-,N/A,,Partly Cloudy,120,2012-12-09 05:30:00
4:00 PM,87,63,35,29.86,,ESE,21.9,,,,,120,2012-12-09 06:00:00
4:00 PM,87.8,62.6,43,29.83,6.2,ESE,21.9,-,N/A,,Partly Cloudy,120,2012-12-09 06:00:00
4:30 PM,86.0,64.4,48,29.86,6.2,ESE,21.9,-,N/A,,Partly Cloudy,120,2012-12-09 06:30:00
5:00 PM,84.2,62.6,48,29.86,6.2,SE,20.7,-,N/A,,Partly Cloudy,130,2012-12-09 07:00:00
5:30 PM,84.2,64.4,51,29.86,6.2,ESE,20.7,-,N/A,,Partly Cloudy,120,2012-12-09 07:30:00
6:00 PM,82,65,47,29.87,,ESE,20.7,,,,,120,2012-12-09 08:00:00
6:00 PM,82.4,64.4,54,29.86,6.2,ESE,20.7,-,N/A,,Partly Cloudy,120,2012-12-09 08:00:00
6:30 PM,80.6,64.4,58,29.89,6.2,SE,19.6,-,N/A,,Partly Cloudy,130,2012-12-09 08:30:00
7:00 PM,81,65,50,29.89,,ESE,18.4,,,,,120,2012-12-09 09:00:00
7:00 PM,80.6,66.2,61,29.89,6.2,ESE,18.4,-,N/A,,Partly Cloudy,120,2012-12-09 09:00:00
7:30 PM,80.6,66.2,61,29.89,6.2,SE,17.3,-,N/A,,Partly Cloudy,130,2012-12-09 09:30:00
8:00 PM,78.8,66.2,65,29.89,6.2,SE,16.1,-,N/A,,Partly Cloudy,140,2012-12-09 10:00:00
8:30 PM,78.8,64.4,61,29.92,6.2,SSE,10.4,-,N/A,,Partly Cloudy,150,2012-12-09 10:30:00
9:00 PM,78,64,54,29.92,,South,6.9,,,,,170,2012-12-09 11:00:00
9:00 PM,78.8,64.4,61,29.92,6.2,South,6.9,-,N/A,,Partly Cloudy,170,2012-12-09 11:00:00
9:30 PM,78.8,64.4,61,29.92,6.2,South,6.9,-,N/A,,Partly Cloudy,190,2012-12-09 11:30:00
10:00 PM,78,65,56,29.93,,South,8.1,,,,,170,2012-12-09 12:00:00
10:00 PM,77.0,64.4,65,29.92,6.2,South,8.1,-,N/A,,Partly Cloudy,170,2012-12-09 12:00:00
10:30 PM,77.0,66.2,69,29.92,6.2,South,9.2,-,N/A,,Partly Cloudy,180,2012-12-09 12:30:00
11:00 PM,77.0,66.2,69,29.89,6.2,South,10.4,-,N/A,,Partly Cloudy,180,2012-12-09 13:00:00
11:30 PM,78.8,66.2,65,29.89,6.2,South,10.4,-,N/A,,Scattered Clouds,180,2012-12-09 13:30:00